Leesburg, VA

11:29 PM EDT on August 17, 2019 (GMT -0400)
Leesburg Executive

Weather History for KJYO - April, 2019

Change the Weather History Date:

Friday, April 26, 2019

  Actual Average (KIAD) Record (KIAD)
Temperature  
Mean Temperature 63 °F -  
Max Temperature 73 °F 67 °F 92 °F (1990)
Min Temperature 53 °F 42 °F 31 °F (1967)
Degree Days  
Heating Degree Days 2    
Growing Degree Days 13 (Base 50)    
Moisture  
Dew Point 55 °F    
Average Humidity 86    
Maximum Humidity 100    
Minimum Humidity 63    
Precipitation  
Precipitation 0.00 in - - ()
Sea Level Pressure  
Sea Level Pressure 29.59 in    
Wind  
Wind Speed 6 mph (WSW)    
Max Wind Speed 30 mph    
Max Gust Speed 40 mph    
Visibility 9 miles    
Events Thunderstorm    
Averages and records for this station are not official NWS values.
T = Trace of Precipitation, MM = Missing Value Source: NWS Daily Summary

Daily Weather History Graph

Daily Weather History Graph

Search for Another Location

Airport or City:

Astronomy

Apr. 26, 2019 Rise Set
Actual Time 6:18 AM EDT 7:58 PM EDT
Civil Twilight 5:50 AM EDT 8:26 PM EDT
Nautical Twilight 5:15 AM EDT 9:01 PM EDT
Astronomical Twilight 4:39 AM EDT 9:37 PM EDT
Moon 2:09 AM EDT (4/26) 12:04 PM EDT (4/26)
Length of Visible Light 14h 36m
Length of Day
13h 39m
Waning Gibbous, 53% of the Moon is Illuminated
Apr 26
Waning Gibbous
Apr 26
Last Quarter
May 4
New
May 11
First Quarter
May 18
Full

Hourly Weather History & Observations

Time (EDT) Temp. Dew Point Humidity Pressure Visibility Wind Dir Wind Speed Gust Speed Precip Events Conditions
12:15 AM 59.0 °F 59.0 °F 100% 29.85 in 7.0 mi Calm Calm - N/A   Overcast
12:35 AM 57.2 °F 57.2 °F 100% 29.85 in 7.0 mi Calm Calm - N/A   Overcast
12:55 AM 57.2 °F 57.2 °F 100% 29.81 in 5.0 mi NE 5.8 mph - N/A   Overcast
1:15 AM 57.2 °F 57.2 °F 100% 29.80 in 7.0 mi ESE 6.9 mph - N/A   Mostly Cloudy
1:35 AM 57.2 °F 57.2 °F 100% 29.81 in 10.0 mi SE 5.8 mph - N/A   Overcast
1:55 AM 57.2 °F 57.2 °F 100% 29.82 in 10.0 mi SSW 3.5 mph - N/A   Overcast
2:15 AM 57.2 °F 57.2 °F 100% 29.80 in 10.0 mi Calm Calm - N/A   Overcast
2:35 AM 55.4 °F 55.4 °F 100% 29.78 in 10.0 mi SE 4.6 mph - N/A   Overcast
2:55 AM 57.2 °F 55.4 °F 94% 29.76 in 10.0 mi Calm Calm - N/A   Mostly Cloudy
3:15 AM 57.2 °F 55.4 °F 94% 29.76 in 10.0 mi South 3.5 mph - N/A   Scattered Clouds
3:35 AM 55.4 °F 55.4 °F 100% 29.76 in 10.0 mi South 3.5 mph - N/A   Mostly Cloudy
3:55 AM 55.4 °F 55.4 °F 100% 29.74 in 10.0 mi SE 3.5 mph - N/A   Scattered Clouds
4:15 AM 55.4 °F 55.4 °F 100% 29.71 in 10.0 mi Calm Calm - N/A   Clear
4:35 AM 55.4 °F 55.4 °F 100% 29.71 in 10.0 mi Calm Calm - N/A   Clear
4:55 AM 55.4 °F 55.4 °F 100% 29.71 in 10.0 mi SSE 4.6 mph - N/A Thunderstorm Clear
5:15 AM 55.4 °F 55.4 °F 100% 29.71 in 5.0 mi ESE 4.6 mph - N/A Thunderstorm Thunderstorm
5:35 AM 55.4 °F 55.4 °F 100% 29.70 in 10.0 mi SSE 9.2 mph - N/A Thunderstorm Overcast
5:55 AM 53.6 °F 53.6 °F 100% 29.68 in 10.0 mi Calm Calm - N/A   Mostly Cloudy
6:15 AM 55.4 °F 53.6 °F 94% 29.67 in 10.0 mi Calm Calm - N/A   Mostly Cloudy
6:35 AM 53.6 °F 53.6 °F 100% 29.67 in 10.0 mi SSE 4.6 mph - N/A   Mostly Cloudy
6:55 AM 53.6 °F 53.6 °F 100% 29.67 in 10.0 mi Calm Calm - N/A   Mostly Cloudy
7:15 AM 53.6 °F 53.6 °F 100% 29.67 in 7.0 mi Calm Calm - N/A   Overcast
7:35 AM 53.6 °F 53.6 °F 100% 29.65 in 10.0 mi Calm Calm - N/A   Overcast
7:55 AM 53.6 °F 53.6 °F 100% 29.64 in 10.0 mi Calm Calm - N/A   Overcast
8:15 AM 55.4 °F 55.4 °F 100% 29.64 in 10.0 mi Calm Calm - N/A   Overcast
8:35 AM 55.4 °F 55.4 °F 100% 29.63 in 10.0 mi Calm Calm - N/A   Overcast
8:55 AM 55.4 °F 55.4 °F 100% 29.62 in 7.0 mi Calm Calm - N/A   Overcast
9:15 AM 55.4 °F 55.4 °F 100% 29.62 in 5.0 mi SW 3.5 mph - N/A   Overcast
9:30 AM 55.4 °F 55.4 °F 100% 29.60 in 5.0 mi South 3.5 mph - N/A   Overcast
9:55 AM 55.4 °F 55.4 °F 100% 29.57 in 7.0 mi ESE 3.5 mph - N/A   Overcast
10:15 AM 57.2 °F 57.2 °F 100% 29.54 in 5.0 mi SE 8.1 mph - N/A   Overcast
10:35 AM 59.0 °F 59.0 °F 100% 29.53 in 7.0 mi SSE 3.5 mph - N/A   Overcast
10:55 AM 60.8 °F 60.8 °F 100% 29.52 in 10.0 mi SW 4.6 mph - N/A   Overcast
11:15 AM 62.6 °F 60.8 °F 94% 29.51 in 10.0 mi South 5.8 mph - N/A   Mostly Cloudy
11:35 AM 66.2 °F 62.6 °F 88% 29.49 in 10.0 mi South 11.5 mph - N/A   Mostly Cloudy
11:55 AM 69.8 °F 62.6 °F 78% 29.48 in 10.0 mi South 13.8 mph - N/A   Mostly Cloudy
12:15 PM 71.6 °F 62.6 °F 73% 29.46 in 10.0 mi SSW 10.4 mph 21.9 mph N/A   Overcast
12:35 PM 71.6 °F 62.6 °F 73% 29.44 in 10.0 mi South 20.7 mph 29.9 mph N/A   Overcast
12:55 PM 73.4 °F 60.8 °F 65% 29.42 in 10.0 mi SSW 12.7 mph 25.3 mph N/A   Overcast
1:15 PM 73.4 °F 60.8 °F 65% 29.41 in 10.0 mi SSW 15.0 mph 27.6 mph N/A   Overcast
1:35 PM 73.4 °F 60.8 °F 65% 29.39 in 10.0 mi SSW 16.1 mph 24.2 mph N/A   Overcast
1:55 PM 69.8 °F 62.6 °F 78% 29.39 in 7.0 mi SSW 18.4 mph 25.3 mph N/A   Overcast
2:15 PM 71.6 °F 62.6 °F 73% 29.38 in 10.0 mi WSW 13.8 mph 25.3 mph N/A   Overcast
2:35 PM 66.2 °F 62.6 °F 88% 29.39 in 2.5 mi WSW 12.7 mph 25.3 mph N/A Thunderstorm Thunderstorm
2:55 PM 62.6 °F 62.6 °F 100% 29.40 in 7.0 mi SSW 9.2 mph - N/A   Overcast
3:15 PM 60.8 °F 60.8 °F 100% 29.41 in 5.0 mi WSW 9.2 mph - N/A   Overcast
3:35 PM 60.8 °F 60.8 °F 100% 29.40 in 3.0 mi WSW 6.9 mph - N/A   Overcast
3:55 PM 60.8 °F 60.8 °F 100% 29.39 in 10.0 mi West 5.8 mph - N/A   Overcast
4:15 PM 62.6 °F 62.6 °F 100% 29.39 in 10.0 mi West 10.4 mph - N/A   Scattered Clouds
4:35 PM 62.6 °F 60.8 °F 94% 29.40 in 10.0 mi WNW 11.5 mph 16.1 mph N/A   Scattered Clouds
4:55 PM 62.6 °F 57.2 °F 82% 29.39 in 10.0 mi NW 20.7 mph 26.5 mph N/A   Overcast
5:15 PM 64.4 °F 55.4 °F 73% 29.40 in 10.0 mi NW 15.0 mph 27.6 mph N/A   Mostly Cloudy
5:35 PM 62.6 °F 53.6 °F 72% 29.44 in 10.0 mi NW 17.3 mph 28.8 mph N/A   Mostly Cloudy
5:55 PM 62.6 °F 51.8 °F 68% 29.46 in 10.0 mi NW 16.1 mph 29.9 mph N/A   Mostly Cloudy
6:15 PM 62.6 °F 51.8 °F 68% 29.47 in 10.0 mi NW 17.3 mph 27.6 mph N/A   Mostly Cloudy
6:35 PM 62.6 °F 50.0 °F 63% 29.47 in 10.0 mi NW 15.0 mph 28.8 mph N/A   Scattered Clouds
6:55 PM 60.8 °F 50.0 °F 68% 29.48 in 10.0 mi NW 15.0 mph 26.5 mph N/A   Mostly Cloudy
7:15 PM 60.8 °F 50.0 °F 68% 29.49 in 10.0 mi NW 20.7 mph 35.7 mph N/A   Overcast
7:35 PM 60.8 °F 48.2 °F 63% 29.52 in 10.0 mi NW 23.0 mph 35.7 mph N/A   Overcast
7:55 PM 59.0 °F 46.4 °F 63% 29.54 in 10.0 mi NNW 29.9 mph 40.3 mph N/A   Overcast
8:15 PM 57.2 °F 44.6 °F 63% 29.56 in 10.0 mi NNW 25.3 mph 38.0 mph N/A   Overcast
8:35 PM 57.2 °F 44.6 °F 63% 29.58 in 10.0 mi NNW 20.7 mph 29.9 mph N/A   Mostly Cloudy
8:55 PM 55.4 °F 44.6 °F 67% 29.61 in 10.0 mi NNW 11.5 mph 17.3 mph N/A   Mostly Cloudy
9:15 PM 55.4 °F 44.6 °F 67% 29.62 in 10.0 mi NW 10.4 mph - N/A   Overcast
9:35 PM 55.4 °F 44.6 °F 67% 29.62 in 10.0 mi NW 11.5 mph 25.3 mph N/A   Overcast
9:55 PM 55.4 °F 44.6 °F 67% 29.62 in 10.0 mi NW 15.0 mph 25.3 mph N/A   Scattered Clouds
10:15 PM 55.4 °F 44.6 °F 67% 29.64 in 10.0 mi NW 15.0 mph 24.2 mph N/A   Mostly Cloudy
10:35 PM 55.4 °F 44.6 °F 67% 29.63 in 10.0 mi NW 17.3 mph 20.7 mph N/A   Mostly Cloudy
10:55 PM 55.4 °F 44.6 °F 67% 29.63 in 10.0 mi NW 17.3 mph 20.7 mph N/A   Scattered Clouds
11:15 PM 55.4 °F 44.6 °F 67% 29.64 in 10.0 mi NW 10.4 mph 17.3 mph N/A   Clear
11:35 PM 55.4 °F 44.6 °F 67% 29.64 in 10.0 mi WNW 8.1 mph - N/A   Clear
11:55 PM 55.4 °F 44.6 °F 67% 29.65 in 10.0 mi NW 12.7 mph 18.4 mph N/A   Scattered Clouds